ARIANE 5 R/B, 42742

Orbit data source: Space-Track

ARIANE 5 R/B, 42742 is space debris in HEO originally from a launch on Thu, 01 Jun 2017 UTC launched from the French Guiana (FRGUI). Debris objects in space refer to the collection of defunct objects orbiting the Earth. Examples of debris include non-operational satellites, rocket bodies, and fragments generated from explosions, collisions, or faulty payload assembly.

Loading next visibility...
ARIANE 5 R/B details
Identifier
42742, 2017-029C
Orbit
HEO
Last TLE update16 hours ago
Origin
Flag of FRArianespace (FR)
ManufacturerAirbus Safran
MissionSpacecraft
Bus & MotorESC-A, Unknown motor
Mass~5,000 kg wet, ~5,000 kg dry
Launch date (UTC)
2017-06-01 (8 years ago)
Launch vehicleUnknown
Launch site
French Guiana (FRGUI)
Object type
Payload
Rocket body
Debris
Shape & HBRCyl + 1 Nozzle, 7 m
Radar Cross Section41.627 m², Large (>1 m²)

Expand to show TLE details & history

TLE from 16 hours ago
0 ARIANE 5 R/B
1 42742U 17029C   24360.88889746  .00005577  00000-0  21976-2 0  9992
2 42742   6.3532   3.9942 7226412 290.5389   9.5360  2.34127249 63632
Epoch: 2024-12-25T21:20Z
Definitive object data (Epoch: 2024-12-25T21:20:00.74Z)
Latitude-0.00022°
Longitude-51.00104°
Altitude2,731.197 km
Speed8.418 km/s
True Right ascension00h 15m 30s
True Declination0° 00' 01"
Sunlit
Object was in daylight at TLE epoch
Visualization TLE readout
Latitude5.73603°
Longitude64.56134°
Altitude34,561.018 km
Speed1.684 km/s
Apparent Right ascension07h 31m 26s
Apparent Declination0° 01' 28"
Sunlit
Object is in daylight
Visualization observer readout
Local Sidereal Time12:20:57
Azimuth258.501° W
Elevation13.44°
Doppler factor1
Orbital elements
Apogee altitude34,900.754 km
Perigee altitude268.09 km
Semi-major axis23,962.559 km
Eccentricity0.7226412
Inclination6.3532°
RAAN3.9942°
Arg. of periapsis290.5389°
True anomaly68.63109°
Mean anomaly9.536°
Eccentric anomaly30.63306°
Mean motion0.58512 °/min
BSTAR0.0021976
Orbital period615.26 mins
Loading maneuver chart data...
Loading historical data...
Loading historical data...
Loading historical data...
Loading historical data...
Loading historical data...
Loading historical data...
Loading historical data...
Other satellites on launch #29 in the year 2017 (2017-06-01 UTC)

ARIANE 5 R/B Visibility forecast

Observer location: undefined°, undefined

Span
Click to sort rows by Start time (UTC) header in descending order
Start Az.
Max El. time (UTC)
Max El. Az.
Max El.
End time (UTC)
End Az.
33 mins2024-12-26 12:59:21.532Z258.486° W2024-12-26 12:59:21.532Z258.486° W13.078°2024-12-26 13:32:21.532Z260.77° W
524 mins2024-12-27 04:15:21.532Z221.656° SW2024-12-27 07:40:21.532Z183.116° SSW37.614°2024-12-27 12:59:21.532Z208.396° SW
|